Retour au catalogue

STARLINK-3923

ActifCommunicationsVLEO
NORAD 52489·PAYLOAD·🇺🇸 United States

Lancé May 6, 2022 depuis Cape Canaveral Space Force Station

Loading…

Prochains Passages (prochaines 24 heures)

TLE

FraisSource: CelesTrak SupGP

Époque: Sep 14, 2026, 22:11 UTC

1 52489C 22049AQ  26257.92479167  .00052004  00000+0  15781-2 0  2573
2 52489  53.1579 279.8343 0001249  90.8192 231.9537 15.33519974    19

Suivez STARLINK-3923 en temps réel avec AllMySat

Download on the App Store